Weather History for KO22 - August, 2013

Change the Weather History Date:

Tuesday, August 6, 2013

  Actual Average (KMOD) Record (KMOD)
Temperature  
Mean Temperature 72 °F -  
Max Temperature 89 °F 95 °F 106 °F (1978)
Min Temperature 55 °F 63 °F 51 °F (1949)
Degree Days  
Heating Degree Days 0 0  
Month to date heating degree days 0  
Since 1 June heating degree days 3  
Since 1 July heating degree days 0  
Cooling Degree Days 7 14  
Month to date cooling degree days 84  
Year to date cooling degree days 1019  
Since 1 June cooling degree days 820  
Growing Degree Days 22 (Base 50)    
Moisture  
Dew Point 41 °F    
Average Humidity 37    
Maximum Humidity 59    
Minimum Humidity 17    
Precipitation  
Precipitation 0.00 in 0.00 in 0.00 in (2015)
Month to date precipitation 0.00  
Year to date precipitation 8.75  
Snow  
Snow 0.00 in - - ()
Month to date snowfall  
Since 1 June snowfall  
Since 1 July snowfall  
Snow Depth -    
Sea Level Pressure  
Sea Level Pressure 30.00 in    
Wind  
Wind Speed 2 mph (WSW)    
Max Wind Speed 9 mph    
Max Gust Speed -    
Visibility 10 miles    
Events      
T = Trace of Precipitation, MM = Missing Value Source: NWS Daily Summary

Daily Weather History Graph

Daily Weather History Graph

Search for Another Location

Airport or City:

Trip Planner

Search our weather history database for the weather conditions in past years. The results will help you decide how hot, cold, wet, or windy it might be!

Date:

Astronomy

Aug. 06, 2013 Rise Set
Actual Time 6:09 AM PDT 8:05 PM PDT
Civil Twilight 5:40 AM PDT 8:33 PM PDT
Nautical Twilight 5:05 AM PDT 9:08 PM PDT
Astronomical Twilight 4:27 AM PDT 9:46 PM PDT
Moon 6:04 AM PDT (8/6) 7:44 PM PDT (8/6)
Length of Visible Light 14h 53m
Length of Day
13h 56m
Waning Crescent, 0% of the Moon is Illuminated
Aug 6
Waning Crescent
Aug 6
New
Aug 14
First Quarter
Aug 20
Full
Aug 28
Last Quarter

Hourly Weather History & Observations

Time (PDT) Temp. Dew Point Humidity Pressure Visibility Wind Dir Wind Speed Gust Speed Precip Events Conditions
12:15 AM 62.6 °F 41.0 °F 45% 29.99 in 10.0 mi Calm Calm - N/A   Clear
12:35 AM 62.6 °F 41.0 °F 45% 29.99 in 10.0 mi Calm Calm - N/A   Clear
12:55 AM 60.8 °F 41.0 °F 48% 29.99 in 10.0 mi Calm Calm - N/A   Clear
1:15 AM 59.0 °F 41.0 °F 51% 29.98 in 10.0 mi Calm Calm - N/A   Clear
1:35 AM 59.0 °F 41.0 °F 51% 29.98 in 10.0 mi Calm Calm - N/A   Clear
1:55 AM 59.0 °F 41.0 °F 51% 29.98 in 10.0 mi Calm Calm - N/A   Clear
2:15 AM 59.0 °F 41.0 °F 51% 29.98 in 10.0 mi Calm Calm - N/A   Clear
2:35 AM 57.2 °F 41.0 °F 55% 29.97 in 10.0 mi Calm Calm - N/A   Clear
2:55 AM 57.2 °F 41.0 °F 55% 29.97 in 10.0 mi Calm Calm - N/A   Clear
3:15 AM 57.2 °F 41.0 °F 55% 29.97 in 10.0 mi Calm Calm - N/A   Clear
3:35 AM 57.2 °F 41.0 °F 55% 29.97 in 10.0 mi NE 3.5 mph - N/A   Clear
3:55 AM 57.2 °F 41.0 °F 55% 29.97 in 10.0 mi Calm Calm - N/A   Clear
4:15 AM 57.2 °F 41.0 °F 55% 29.97 in 10.0 mi Calm Calm - N/A   Clear
4:35 AM 57.2 °F 41.0 °F 55% 29.97 in 10.0 mi Calm Calm - N/A   Clear
4:55 AM 55.4 °F 41.0 °F 58% 29.97 in 10.0 mi Calm Calm - N/A   Clear
5:15 AM 55.4 °F 41.0 °F 58% 29.97 in 10.0 mi Calm Calm - N/A   Clear
5:35 AM 55.4 °F 41.0 °F 58% 29.97 in 10.0 mi Calm Calm - N/A   Clear
5:55 AM 55.4 °F 41.0 °F 58% 29.98 in 10.0 mi Calm Calm - N/A   Clear
6:15 AM 55.4 °F 41.0 °F 58% 29.98 in 10.0 mi Calm Calm - N/A   Clear
6:35 AM 55.4 °F 41.0 °F 58% 29.98 in 10.0 mi Calm Calm - N/A   Clear
6:55 AM 59.0 °F 41.0 °F 51% 29.99 in 10.0 mi Calm Calm - N/A   Clear
7:15 AM 60.8 °F 44.6 °F 55% 29.99 in 10.0 mi Calm Calm - N/A   Clear
7:35 AM 64.4 °F 44.6 °F 49% 30.00 in 10.0 mi Calm Calm - N/A   Clear
7:55 AM 68.0 °F 46.4 °F 46% 30.00 in 10.0 mi Calm Calm - N/A   Clear
8:15 AM 73.4 °F 41.0 °F 31% 30.00 in 10.0 mi Calm Calm - N/A   Clear
8:35 AM 75.2 °F 39.2 °F 27% 30.00 in 10.0 mi Calm Calm - N/A   Clear
8:55 AM 77.0 °F 39.2 °F 26% 30.01 in 10.0 mi Calm Calm - N/A   Clear
9:15 AM 78.8 °F 41.0 °F 26% 30.01 in 6.0 mi South 3.5 mph - N/A   Clear
9:35 AM 78.8 °F 41.0 °F 26% 30.01 in 5.0 mi South 3.5 mph - N/A   Clear
9:55 AM 82.4 °F 41.0 °F 23% 30.01 in 4.0 mi Calm Calm - N/A   Clear
10:15 AM 82.4 °F 39.2 °F 21% 30.01 in 7.0 mi South 3.5 mph - N/A   Clear
10:35 AM 82.4 °F 41.0 °F 23% 30.01 in 9.0 mi SSE 4.6 mph - N/A   Clear
10:55 AM 82.4 °F 39.2 °F 21% 30.01 in 10.0 mi South 4.6 mph - N/A   Clear
11:15 AM 84.2 °F 39.2 °F 20% 30.01 in 9.0 mi SSW 5.8 mph - N/A   Clear
11:35 AM 86.0 °F 39.2 °F 19% 30.01 in 8.0 mi SW 6.9 mph - N/A   Clear
11:55 AM 86.0 °F 39.2 °F 19% 30.01 in 10.0 mi WSW 4.6 mph - N/A   Clear
12:15 PM 86.0 °F 39.2 °F 19% 30.01 in 10.0 mi SW 8.1 mph - N/A   Clear
12:35 PM 87.8 °F 41.0 °F 19% 30.01 in 10.0 mi SW 6.9 mph - N/A   Clear
12:55 PM 87.8 °F 37.4 °F 17% 30.01 in 10.0 mi SSW 5.8 mph - N/A   Clear
1:15 PM 89.6 °F 39.2 °F 17% 30.01 in 10.0 mi WSW 6.9 mph - N/A   Clear
1:35 PM 87.8 °F 39.2 °F 18% 30.00 in 10.0 mi West 6.9 mph - N/A   Clear
1:55 PM 89.6 °F 41.0 °F 18% 30.00 in 10.0 mi West 8.1 mph - N/A   Clear
2:15 PM 89.6 °F 41.0 °F 18% 30.00 in 10.0 mi SSW 5.8 mph - N/A   Clear
2:35 PM 89.6 °F 39.2 °F 17% 29.99 in 10.0 mi WSW 9.2 mph - N/A   Clear
2:55 PM 89.6 °F 39.2 °F 17% 29.99 in 10.0 mi West 8.1 mph - N/A   Clear
3:15 PM 89.6 °F 39.2 °F 17% 29.99 in 10.0 mi SW 8.1 mph - N/A   Clear
3:35 PM 89.6 °F 39.2 °F 17% 29.99 in 10.0 mi WSW 9.2 mph - N/A   Clear
3:55 PM 89.6 °F 39.2 °F 17% 29.99 in 10.0 mi WSW 8.1 mph - N/A   Clear
4:15 PM 87.8 °F 39.2 °F 18% 29.98 in 10.0 mi WSW 6.9 mph - N/A   Clear
4:35 PM 87.8 °F 39.2 °F 18% 29.98 in 10.0 mi SW 9.2 mph - N/A   Clear
4:55 PM 86.0 °F 39.2 °F 19% 29.98 in 10.0 mi West 9.2 mph - N/A   Clear
5:15 PM 86.0 °F 39.2 °F 19% 29.98 in 10.0 mi West 8.1 mph - N/A   Clear
5:35 PM 86.0 °F 39.2 °F 19% 29.98 in 10.0 mi West 9.2 mph - N/A   Clear
5:55 PM 84.2 °F 39.2 °F 20% 29.98 in 10.0 mi West 9.2 mph - N/A   Clear
6:15 PM 84.2 °F 39.2 °F 20% 29.98 in 10.0 mi West 8.1 mph - N/A   Clear
6:35 PM 82.4 °F 39.2 °F 21% 29.99 in 10.0 mi West 6.9 mph - N/A   Clear
6:55 PM 80.6 °F 41.0 °F 24% 29.99 in 10.0 mi West 5.8 mph - N/A   Clear
7:15 PM 77.0 °F 42.8 °F 29% 30.00 in 10.0 mi WNW 5.8 mph - N/A   Clear
7:35 PM 75.2 °F 44.6 °F 34% 30.00 in 10.0 mi NW 6.9 mph - N/A   Clear
7:55 PM 73.4 °F 44.6 °F 36% 30.00 in 10.0 mi WNW 3.5 mph - N/A   Clear
8:15 PM 71.6 °F 44.6 °F 38% 30.00 in 10.0 mi Calm Calm - N/A   Clear
8:35 PM 69.8 °F 44.6 °F 40% 30.01 in 10.0 mi Calm Calm - N/A   Clear
8:55 PM 66.2 °F 44.6 °F 46% 30.01 in 10.0 mi Calm Calm - N/A   Clear
9:15 PM 64.4 °F 44.6 °F 49% 30.01 in 10.0 mi Calm Calm - N/A   Partly Cloudy
9:35 PM 64.4 °F 44.6 °F 49% 30.01 in 10.0 mi Calm Calm - N/A   Scattered Clouds
9:55 PM 64.4 °F 44.6 °F 49% 30.01 in 10.0 mi Calm Calm - N/A   Scattered Clouds
10:15 PM 62.6 °F 44.6 °F 52% 30.02 in 10.0 mi Calm Calm - N/A   Mostly Cloudy
10:35 PM 62.6 °F 44.6 °F 52% 30.02 in 10.0 mi Calm Calm - N/A   Scattered Clouds
10:55 PM 62.6 °F 44.6 °F 52% 30.03 in 10.0 mi Calm Calm - N/A   Scattered Clouds
11:15 PM 62.6 °F 44.6 °F 52% 30.03 in 10.0 mi NE 3.5 mph - N/A   Mostly Cloudy
11:35 PM 59.0 °F 44.6 °F 59% 30.03 in 10.0 mi Calm Calm - N/A   Mostly Cloudy
11:55 PM 59.0 °F 44.6 °F 59% 30.03 in 10.0 mi Calm Calm - N/A   Mostly Cloudy